Home   Weather   Ghazni   Past weeks

Flag for Afghanistan Past Weather in Ghazni, Afghanistan — Yesterday and Last 2 Weeks

73 °F


Feels Like: 77 °F
Forecast: 26 / 63 °F
Wind: No wind

Location: Peshawar Airport

Current Time: Oct 28, 2016 at 8:37:11 PM

Latest Report: Oct 28, 2016 at 8:00 PM

Visibility: 2 mi

Pressure: 29.86 "Hg (23.21 "Hg at 2184m altitude)

Humidity: 44%

Dew Point: 50 °F

Location of GhazniLocation

Past Weather in Ghazni — Graph


Ghazni Temperature Yesterday

Maximum temperature yesterday: 86 °F (at 1:30 PM)
Minimum temperature yesterday: 63 °F (at 5:30 AM)
Average temperature yesterday: 72 °F

High & Low Weather Summary for the Past Weeks

High93 °F (Oct 14, 2:30 PM)87% (Oct 15, 9:00 AM)30.12 "Hg (Oct 15, 9:00 AM)
Low41 °F (Oct 15, 9:00 AM)24% (Oct 14, 2:30 PM)29.68 "Hg (Oct 20, 4:30 PM)
Average77 °F45%29.87 "Hg
* Reported Oct 13 7:30 PM — Oct 28 7:30 PM, Ghazni, Weather by CustomWeather, © 2016

Note: Actual official high and low records may vary slightly from our data, if they occured in-between our weather recording intervals... More about our weather records


Ghazni Weather History for the Previous 24 Hours

Scroll right to see more
Time TempWeatherWind HumidityBarometerVisibility
7:30 PM
Fri, Oct 28
73 °FClear.No wind44%29.86 "Hg2 mi
7:00 PM75 °FClear.5 mph44%29.86 "Hg2 mi
6:30 PM75 °FClear.5 mph44%29.86 "Hg2 mi
6:00 PM79 °FClear.5 mph39%29.83 "Hg2 mi
5:30 PM79 °FClear.5 mph39%29.83 "Hg2 mi
5:00 PM82 °FClear.5 mph37%29.83 "Hg2 mi
4:30 PM82 °FSunny.5 mph37%29.83 "Hg2 mi
4:00 PM86 °FSunny.5 mph31%29.83 "Hg2 mi
3:30 PM86 °FSunny.5 mph31%29.83 "Hg2 mi
3:00 PM88 °FSunny.7 mph29%29.86 "Hg2 mi
2:30 PM88 °FSunny.7 mph29%29.86 "Hg2 mi
2:00 PM86 °FSunny.No wind31%29.89 "Hg2 mi
1:30 PM86 °FSunny.No wind31%29.89 "Hg2 mi
1:00 PM84 °FSunny.5 mph33%29.89 "Hg2 mi
12:30 PM84 °FSunny.5 mph33%29.89 "Hg2 mi
12:00 PM82 °FSunny.5 mph32%29.95 "Hg2 mi
11:30 AM82 °FSunny.5 mph32%29.95 "Hg2 mi
11:00 AM79 °FSunny.5 mph37%29.98 "Hg2 mi
10:30 AM79 °FSunny.5 mph37%29.98 "Hg2 mi
10:00 AM75 °FSunny.5 mph39%29.98 "Hg2 mi
9:30 AM75 °FSunny.5 mph39%29.98 "Hg2 mi
9:00 AM68 °FSunny.5 mph49%29.98 "Hg2 mi
8:30 AM68 °FSunny.5 mph49%29.98 "Hg2 mi
8:00 AM63 °FSunny.5 mph59%29.98 "Hg2 mi
7:30 AM63 °FHaze.5 mph59%29.98 "Hg2 mi
6:30 AM61 °FHaze.No wind63%29.95 "Hg2 mi
5:30 AM61 °FHaze.5 mph68%29.95 "Hg2 mi
4:29 AM61 °FHaze.5 mph63%29.95 "Hg2 mi
3:30 AM63 °FClear.No wind59%29.95 "Hg2 mi
2:30 AM63 °FClear.No wind59%29.98 "Hg2 mi
1:30 AM63 °FClear.No wind59%29.98 "Hg2 mi
12:30 AM64 °FClear.No wind60%29.98 "Hg2 mi
11:30 PM
Thu, Oct 27
66 °FClear.No wind56%30.01 "Hg2 mi
10:30 PM66 °FClear.No wind56%30.01 "Hg2 mi
9:30 PM68 °FHaze.No wind53%30.01 "Hg2 mi
8:30 PM68 °FHaze.No wind53%30.01 "Hg2 mi
Weather by CustomWeather, © 2016

See weather overviewHow to use our weather pages